Location: Gloden
(48.4833°N, 15.3167°E)
Time: 00:16:47
(UTC+00:00)

Cosmos 1441 Rocket - Pass Details

Date: 15 December 2019
Orbit: 496 x 541 km, 81.1° (Epoch: 27 January)

Event Time Altitude Azimuth Distance (km) Brightness Sun altitude
Rises 05:28:39 0° 183° (S) 2,683 7.1 -11.7°
Reaches altitude 10° 05:30:49 10° 180° (S) 1,793 6.2 -11.4°
Maximum altitude 05:34:44 66° 99° (E) 589 3.7 -10.8°
Drops below altitude 10° 05:38:38 10° 17° (NNE) 1,788 5.9 -10.2°
Sets 05:40:47 0° 15° (NNE) 2,676 6.7 -9.9°
